EW4363 Weather Reports


Display with metric or nautical units.
time (UTC)temp
F
wind
direction
speed
MPH
gust
MPH
rain 1hr
in
rain 24hr
in
rain mn
in
humidity
%
barometer
mb
20260509124804 67 281 2.0 6.0 0.00 0.00 0.00 63 1010.6
20260509123304 66 285 2.0 5.0 0.00 0.00 0.00 67 1010.4
20260509122804 66 290 0.0 2.0 0.00 0.00 0.00 69 1010.4
20260509122306 66 327 2.0 5.0 0.00 0.00 0.00 68 1010.7
20260509121803 67 302 2.0 3.0 0.00 0.00 0.00 69 1010.8
20260509121303 67 322 3.0 6.0 0.00 0.00 0.00 69 1011.2
20260509120804 67 316 2.0 8.0 0.00 0.00 0.00 67 1011.5
20260509120303 67 290 2.0 3.0 0.00 0.00 0.00 66 1011.6
20260509115804 67 325 2.0 5.0 0.00 0.00 0.00 65 1011.8
20260509115306 67 308 2.0 7.0 0.00 0.00 0.00 64 1012.0
20260509114803 67 324 2.0 5.0 0.00 0.00 0.00 64 1012.1
20260509113804 67 316 2.0 9.0 0.00 0.00 0.00 65 1012.2
20260509113304 67 312 2.0 6.0 0.00 0.00 0.00 66 1012.3
20260509112306 67 319 3.0 7.0 0.00 0.00 0.00 65 1012.5
20260509111804 67 324 3.0 6.0 0.00 0.00 0.00 66 1012.5
20260509110303 67 326 2.0 7.0 0.00 0.00 0.00 70 1012.2
20260509105804 67 322 2.0 6.0 0.00 0.00 0.00 70 1012.2
20260509105306 67 310 2.0 5.0 0.00 0.00 0.00 70 1012.3
20260509104803 67 320 1.0 5.0 0.00 0.00 0.00 70 1012.3
20260509104304 67 322 2.0 3.0 0.00 0.00 0.00 69 1012.3
20260509103803 68 321 2.0 6.0 0.00 0.00 0.00 69 1012.4
20260509103303 68 314 1.0 5.0 0.00 0.00 0.00 69 1012.5
20260509102803 68 324 2.0 6.0 0.00 0.00 0.00 69 1012.5
20260509102306 68 314 2.0 3.0 0.00 0.00 0.00 68 1012.4
20260509101803 68 315 2.0 8.0 0.00 0.00 0.00 67 1012.4
20260509100305 68 314 1.0 3.0 0.00 0.00 0.00 67 1012.3
20260509095803 68 325 2.0 6.0 0.00 0.00 0.00 67 1012.3
20260509095306 68 320 2.0 5.0 0.00 0.00 0.00 66 1012.1
20260509093803 68 320 2.0 3.0 0.00 0.00 0.00 65 1012.2
20260509093304 68 288 1.0 3.0 0.00 0.00 0.00 64 1012.0
20260509092804 68 294 0.0 5.0 0.00 0.00 0.00 65 1012.0
20260509092306 68 285 0.0 2.0 0.00 0.00 0.00 65 1012.0
20260509091804 68 321 1.0 3.0 0.00 0.00 0.00 66 1011.9
20260509091304 67 295 0.0 6.0 0.00 0.00 0.00 67 1012.1
20260509090803 67 284 2.0 6.0 0.00 0.00 0.00 67 1012.0
20260509090304 67 283 0.0 2.0 0.00 0.00 0.00 68 1011.8
20260509085804 67 328 1.0 3.0 0.00 0.00 0.00 67 1011.8
20260509084803 67 320 1.0 3.0 0.00 0.00 0.00 67 1011.9
20260509083804 66 274 1.0 3.0 0.00 0.00 0.00 68 1011.9
20260509083304 66 274 2.0 6.0 0.00 0.00 0.00 66 1012.0
20260509082804 67 286 1.0 2.0 0.00 0.00 0.00 66 1012.0
20260509082306 67 318 0.0 1.0 0.00 0.00 0.00 67 1012.0
20260509081804 66 322 0.0 3.0 0.00 0.00 0.00 68 1011.9
20260509081304 66 315 2.0 5.0 0.00 0.00 0.00 69 1011.7
20260509080804 66 312 1.0 2.0 0.00 0.00 0.00 69 1011.7
20260509080304 65 287 0.0 3.0 0.00 0.00 0.00 71 1011.6
20260509075803 64 321 1.0 2.0 0.00 0.00 0.00 71 1011.7
20260509075306 63 282 2.0 3.0 0.00 0.00 0.00 73 1011.7
20260509074804 62 261 3.0 6.0 0.00 0.00 0.00 73 1011.8
20260509073804 62 272 2.0 6.0 0.00 0.00 0.00 74 1012.1
20260509072803 61 275 2.0 3.0 0.00 0.00 0.00 75 1012.2
20260509071304 60 270 2.0 3.0 0.00 0.00 0.00 76 1012.5
20260509070804 60 279 2.0 6.0 0.00 0.00 0.00 76 1012.4
20260509070304 60 276 3.0 6.0 0.00 0.00 0.00 76 1012.5
20260509065804 60 261 1.0 3.0 0.00 0.00 0.00 76 1012.6
20260509064804 60 269 2.0 3.0 0.00 0.00 0.00 76 1012.6
20260509064303 60 273 1.0 3.0 0.00 0.00 0.00 76 1012.5
20260509063804 60 266 1.0 2.0 0.00 0.00 0.00 76 1012.5
20260509062306 60 274 0.0 1.0 0.00 0.00 0.00 78 1012.6
20260509060804 59 271 2.0 3.0 0.00 0.00 0.00 78 1012.7
20260509060304 58 283 1.0 5.0 0.00 0.00 0.00 78 1012.9
20260509055804 58 278 2.0 5.0 0.00 0.00 0.00 78 1013.0
20260509054804 58 273 2.0 7.0 0.00 0.00 0.00 79 1012.8
20260509054303 58 263 2.0 3.0 0.00 0.00 0.00 79 1012.7
20260509053804 58 265 1.0 3.0 0.00 0.00 0.00 79 1012.5
20260509052804 58 267 1.0 3.0 0.00 0.00 0.00 79 1012.7
20260509051304 58 260 1.0 3.0 0.00 0.00 0.00 80 1012.7
20260509050803 58 277 0.0 1.0 0.00 0.00 0.00 80 1012.8
20260509050303 58 277 0.0 0.0 0.00 0.00 0.00 80 1012.8
20260509045804 58 277 1.0 5.0 0.00 0.00 0.00 80 1012.8
20260509045306 58 270 2.0 5.0 0.00 0.00 0.00 80 1012.7
20260509044804 58 272 2.0 3.0 0.00 0.00 0.00 80 1012.8
20260509044304 58 272 0.0 3.0 0.00 0.00 0.00 80 1012.7
20260509042803 58 271 1.0 2.0 0.00 0.00 0.00 80 1012.8
20260509042306 58 272 0.0 2.0 0.00 0.00 0.00 80 1012.7
20260509041804 58 269 1.0 3.0 0.00 0.00 0.00 80 1012.8
20260509041304 58 276 2.0 3.0 0.00 0.00 0.00 79 1012.9
20260509040804 59 278 2.0 3.0 0.00 0.00 0.00 79 1012.9
20260509040304 59 273 2.0 3.0 0.00 0.00 0.00 79 1012.9
20260509035306 59 273 2.0 5.0 0.00 0.00 0.00 77 1012.9
20260509034304 59 282 1.0 3.0 0.00 0.00 0.00 78 1012.9
20260509033804 59 269 1.0 3.0 0.00 0.00 0.00 78 1012.9
20260509033304 59 272 0.0 1.0 0.00 0.00 0.00 78 1013.0
20260509032804 59 279 1.0 2.0 0.00 0.00 0.00 78 1012.9
20260509031305 59 272 2.0 5.0 0.00 0.00 0.00 78 1013.1
20260509030804 58 273 1.0 3.0 0.00 0.00 0.00 79 1013.1
20260509030304 58 270 2.0 3.0 0.00 0.00 0.00 79 1013.1
20260509025804 58 269 3.0 7.0 0.00 0.00 0.00 79 1013.1
20260509024804 58 270 2.0 8.0 0.00 0.00 0.00 79 1013.0
20260509024304 59 273 3.0 6.0 0.00 0.00 0.00 79 1013.0
20260509023804 59 273 2.0 5.0 0.00 0.00 0.00 79 1013.0
20260509023304 59 282 2.0 5.0 0.00 0.00 0.00 78 1013.1
20260509022804 59 272 2.0 5.0 0.00 0.00 0.00 79 1013.2
20260509021803 59 271 1.0 3.0 0.00 0.00 0.00 80 1013.1
20260509021303 59 272 1.0 3.0 0.00 0.00 0.00 80 1013.1
20260509020804 59 273 2.0 5.0 0.00 0.00 0.00 80 1013.1
20260509020304 59 276 2.0 6.0 0.00 0.00 0.00 80 1013.2
20260509015804 59 276 2.0 6.0 0.00 0.00 0.00 80 1013.4
20260509015306 59 273 0.0 3.0 0.00 0.00 0.00 80 1013.5
20260509014804 59 283 0.0 3.0 0.00 0.00 0.00 81 1013.5
20260509014304 59 263 1.0 3.0 0.00 0.00 0.00 81 1013.6
20260509013803 59 283 1.0 3.0 0.00 0.00 0.00 82 1013.7
20260509013304 59 274 1.0 3.0 0.00 0.00 0.00 82 1013.7
20260509012804 59 272 1.0 3.0 0.00 0.00 0.00 82 1013.7
20260509012307 59 260 1.0 3.0 0.00 0.00 0.00 82 1013.8
20260509011804 59 274 2.0 8.0 0.00 0.00 0.00 82 1013.8
20260509010801 59 271 1.0 3.0 0.00 0.00 0.00 83 1013.7
20260509010302 59 277 2.0 5.0 0.00 0.00 0.00 82 1013.8
20260509005306 59 319 0.0 0.0 0.00 0.00 0.00 83 1014.0
20260509004302 59 319 0.0 0.0 0.00 0.00 0.00 83 1014.0
20260509003802 60 319 0.0 1.0 0.00 0.00 0.00 82 1014.1
20260509003302 60 322 1.0 3.0 0.00 0.00 0.00 81 1014.2
20260509002802 60 262 0.0 1.0 0.00 0.00 0.00 81 1014.2
20260509002306 60 262 0.0 2.0 0.00 0.00 0.00 81 1014.2
20260509001802 60 267 1.0 3.0 0.00 0.00 0.00 81 1014.2
20260509001303 60 256 1.0 3.0 0.00 0.00 0.00 81 1014.2
20260509000303 60 254 0.0 1.0 0.00 0.00 0.00 82 1014.2
20260508235802 60 254 0.0 0.0 0.00 0.00 0.00 82 1014.2
20260508233302 60 254 0.0 1.0 0.00 0.00 0.00 82 1014.2
20260508232802 60 254 0.0 1.0 0.00 0.00 0.00 81 1014.3
20260508231302 60 254 0.0 1.0 0.00 0.00 0.00 81 1014.3
20260508230802 60 254 0.0 0.0 0.00 0.00 0.00 81 1014.3
20260508230302 60 254 0.0 1.0 0.00 0.00 0.00 81 1014.3
20260508225803 60 255 0.0 2.0 0.00 0.00 0.00 81 1014.4
20260508224802 60 327 0.0 0.0 0.00 0.00 0.00 81 1014.4
20260508223802 60 327 0.0 0.0 0.00 0.00 0.00 80 1014.4
20260508223302 60 327 0.0 0.0 0.00 0.00 0.00 81 1014.5
20260508222802 59 327 0.0 0.0 0.00 0.00 0.00 82 1014.4
20260508222305 59 327 0.0 0.0 0.00 0.00 0.00 82 1014.5
20260508220809 59 327 0.0 0.0 0.00 0.00 0.00 83 1014.6
20260508220302 59 327 0.0 0.0 0.00 0.00 0.00 82 1014.5
20260508215802 59 327 0.0 0.0 0.00 0.00 0.00 82 1014.5
20260508215306 59 327 0.0 0.0 0.00 0.00 0.00 82 1014.5
20260508214802 59 327 0.0 0.0 0.00 0.00 0.00 82 1014.5
20260508214302 59 327 0.0 0.0 0.00 0.00 0.00 82 1014.5
20260508213802 59 327 0.0 0.0 0.00 0.00 0.00 81 1014.5
20260508212802 60 327 0.0 0.0 0.00 0.00 0.00 81 1014.5
20260508212306 60 327 0.0 0.0 0.00 0.00 0.00 81 1014.5
20260508211802 60 327 0.0 0.0 0.00 0.00 0.00 80 1014.5
20260508211302 60 327 0.0 0.0 0.00 0.00 0.00 80 1014.5
20260508210303 60 327 0.0 0.0 0.00 0.00 0.00 79 1014.5
20260508205305 61 327 0.0 0.0 0.00 0.00 0.00 78 1014.5
20260508204803 61 327 0.0 0.0 0.00 0.00 0.00 78 1014.5
20260508204302 61 327 0.0 0.0 0.00 0.00 0.00 78 1014.5
20260508203302 61 327 0.0 0.0 0.00 0.00 0.00 77 1014.3
20260508202803 61 327 0.0 0.0 0.00 0.00 0.00 77 1014.3
20260508202306 61 327 0.0 0.0 0.00 0.00 0.00 77 1014.2
20260508201802 62 327 0.0 0.0 0.00 0.00 0.00 77 1014.1
20260508201302 62 327 0.0 0.0 0.00 0.00 0.00 77 1014.0
20260508200802 62 327 0.0 0.0 0.00 0.00 0.00 76 1014.0
20260508200302 62 327 0.0 0.0 0.00 0.00 0.00 76 1013.9
20260508195802 62 327 0.0 1.0 0.00 0.00 0.00 76 1013.8
20260508195306 62 327 0.0 1.0 0.00 0.00 0.00 76 1013.7
20260508194802 63 327 0.0 0.0 0.00 0.00 0.00 75 1013.6
20260508194302 63 327 0.0 1.0 0.00 0.00 0.00 75 1013.6
20260508193802 63 327 0.0 1.0 0.00 0.00 0.00 75 1013.6
20260508192802 63 326 1.0 2.0 0.00 0.00 0.00 74 1013.5
20260508191803 63 326 1.0 2.0 0.00 0.00 0.00 73 1013.4
20260508191302 63 315 1.0 2.0 0.00 0.00 0.00 73 1013.3
20260508190803 64 329 1.0 3.0 0.00 0.00 0.00 72 1013.3
20260508190302 64 326 1.0 3.0 0.00 0.00 0.00 72 1013.1
20260508185803 64 325 1.0 3.0 0.00 0.00 0.00 72 1013.1
20260508184802 64 328 1.0 3.0 0.00 0.00 0.00 71 1013.1
20260508183803 64 324 2.0 3.0 0.00 0.00 0.00 70 1013.1
20260508183302 64 320 1.0 3.0 0.00 0.00 0.00 70 1013.1
20260508182802 64 322 1.0 3.0 0.00 0.00 0.00 70 1013.0
20260508182306 64 324 1.0 3.0 0.00 0.00 0.00 70 1012.9
20260508181803 65 324 1.0 3.0 0.00 0.00 0.00 70 1012.9
20260508180802 65 317 2.0 5.0 0.00 0.00 0.00 69 1012.8
20260508175802 65 320 2.0 5.0 0.00 0.00 0.00 67 1012.8
20260508175305 65 300 2.0 3.0 0.00 0.00 0.00 66 1012.7
20260508174803 66 321 2.0 7.0 0.00 0.00 0.00 65 1012.7
20260508174302 66 323 3.0 6.0 0.00 0.00 0.00 65 1012.7
20260508173802 66 309 2.0 7.0 0.00 0.00 0.00 64 1012.8
20260508173302 66 330 2.0 3.0 0.00 0.00 0.00 64 1012.7
20260508172803 66 252 2.0 6.0 0.00 0.00 0.00 63 1012.6
20260508172306 67 318 3.0 8.0 0.00 0.00 0.00 63 1012.5
20260508171803 67 320 2.0 6.0 0.00 0.00 0.00 62 1012.5
20260508171302 67 323 3.0 8.0 0.00 0.00 0.00 63 1012.5
20260508170802 67 319 3.0 7.0 0.00 0.00 0.00 63 1012.5
20260508170303 67 320 2.0 6.0 0.00 0.00 0.00 63 1012.4
20260508165802 67 325 3.0 7.0 0.00 0.00 0.00 63 1012.4
20260508165306 67 322 2.0 6.0 0.00 0.00 0.00 63 1012.3
20260508164803 67 317 2.0 7.0 0.00 0.00 0.00 63 1012.3
20260508163803 67 312 3.0 7.0 0.00 0.00 0.00 63 1012.2
20260508163303 68 315 3.0 7.0 0.00 0.00 0.00 63 1012.2
20260508162803 68 319 3.0 7.0 0.00 0.00 0.00 63 1012.2
20260508162306 68 319 2.0 6.0 0.00 0.00 0.00 62 1012.1
20260508161803 68 317 2.0 3.0 0.00 0.00 0.00 62 1012.1
20260508161302 68 325 1.0 3.0 0.00 0.00 0.00 63 1012.1
20260508160802 68 315 2.0 7.0 0.00 0.00 0.00 63 1012.1
20260508160302 68 328 2.0 6.0 0.00 0.00 0.00 64 1012.0
20260508155802 68 318 3.0 7.0 0.00 0.00 0.00 64 1012.1
20260508155305 68 326 2.0 5.0 0.00 0.00 0.00 65 1012.2
20260508154802 68 323 2.0 5.0 0.00 0.00 0.00 66 1012.3
20260508154302 68 324 2.0 7.0 0.00 0.00 0.00 65 1012.3
20260508153802 68 320 4.0 8.0 0.00 0.00 0.00 64 1012.3
20260508153303 68 328 3.0 6.0 0.00 0.00 0.00 64 1012.3
20260508152803 69 316 5.0 9.0 0.00 0.00 0.00 63 1012.3
20260508152306 69 322 3.0 7.0 0.00 0.00 0.00 63 1012.3
20260508151803 69 314 3.0 8.0 0.00 0.00 0.00 62 1012.3
20260508150303 70 318 2.0 6.0 0.00 0.00 0.00 56 1012.3
20260508145803 70 318 4.0 6.0 0.00 0.00 0.00 56 1012.2
20260508145306 71 315 4.0 8.0 0.00 0.00 0.00 55 1012.2
20260508144803 71 322 2.0 6.0 0.00 0.00 0.00 54 1012.2
20260508144303 72 317 2.0 7.0 0.00 0.00 0.00 53 1012.2
20260508143302 73 323 2.0 5.0 0.00 0.00 0.00 52 1012.2
20260508141303 72 310 2.0 5.0 0.00 0.00 0.00 54 1012.3
20260508140803 72 324 2.0 6.0 0.00 0.00 0.00 53 1012.4
20260508140303 72 318 3.0 6.0 0.00 0.00 0.00 52 1012.5
20260508135803 73 324 3.0 6.0 0.00 0.00 0.00 52 1012.6
20260508135305 73 306 2.0 7.0 0.00 0.00 0.00 52 1012.6
20260508134802 73 322 3.0 8.0 0.00 0.00 0.00 51 1012.8
20260508133802 72 319 3.0 6.0 0.00 0.00 0.00 51 1012.9
20260508133302 72 321 3.0 8.0 0.00 0.00 0.00 51 1012.8
20260508132803 72 320 3.0 6.0 0.00 0.00 0.00 51 1012.8
20260508132306 72 308 3.0 6.0 0.00 0.00 0.00 50 1012.9
20260508131802 72 323 3.0 8.0 0.00 0.00 0.00 49 1013.0
20260508130803 72 314 2.0 6.0 0.00 0.00 0.00 49 1013.1
20260508130303 72 323 3.0 6.0 0.00 0.00 0.00 49 1013.0
20260508125803 72 304 1.0 3.0 0.00 0.00 0.00 50 1012.9
20260508125305 72 323 3.0 6.0 0.00 0.00 0.00 50 1012.9